[[{"header":{"parameterUnit":"m.s-1","parameterCategory":1,"la1":30.2992,"la2":30.254,"lo1":-89.0895,"lo2":-89.0443,"dy":0.0025,"dx":0.0025,"nx":19,"ny":19,"refTime":"2026-04-29T21:00:00:Z","depth":0,"parameterNumber":2,"parameterNumberName":"U-component_of_WINDS"},"data":[0,0,0,-4.3758,-4.3759,-4.3783,-4.3783,-4.3847,-4.3848,0,0,0,0,0,0,0,0,0,0,0,-4.3771,-4.3772,-4.3758,-4.3759,-4.3783,-4.3783,-4.3847,-4.3848,0,0,0,0,0,0,0,0,0,0,0,-4.377,-4.3771,-4.3773,-4.3759,-4.3783,-4.3783,-4.3847,-4.3817,0,0,0,0,0,0,0,0,0,0,-4.3788,-4.3819,-4.3771,-4.3773,-4.376,-4.3783,-4.3783,-4.3815,-4.3819,-4.385,0,-4.3884,0,-4.3867,-4.3855,-4.3855,0,0,0,-4.3744,-4.3816,-4.3804,-4.3773,-4.376,-4.3783,-4.3768,-4.3817,-4.3821,-4.3856,-4.3884,-4.3886,-4.3868,-4.3855,-4.3856,-4.4088,-4.409,0,0,-4.3743,-4.3786,-4.3801,-4.3808,-4.3806,-4.3768,-4.3769,-4.3819,-4.3853,-4.3884,-4.3887,-4.3869,-4.3856,-4.3857,-4.4086,-4.4088,0,0,0,-4.3749,-4.3785,-4.3772,-4.3806,-4.3808,-4.3769,-4.3771,-4.385,-4.3843,-4.3887,-4.387,-4.3856,-4.3858,-4.4084,-4.4087,-4.4218,0,0,0,-4.3748,-4.3789,-4.3772,-4.3799,-4.3808,-4.383,-4.3802,-4.3839,-4.3843,-4.387,-4.3856,-4.3859,-4.4082,-4.4086,-4.421,-4.4273,0,0,0,-4.3762,-4.379,-4.3801,-4.3801,-4.3813,-4.3828,-4.3822,-4.3839,-4.3834,-4.3855,-4.3859,-4.4081,-4.4085,-4.4203,-4.4261,-4.4348,0,0,0,-4.379,-4.3915,-4.3803,-4.3936,-4.3813,-4.3908,-4.3821,-4.389,-4.3923,-4.3857,-4.4082,-4.4087,-4.42,-4.4254,-4.4341,-4.443,-4.447,0,0,-4.3972,-4.3939,-4.4013,-4.3914,-4.404,-4.3901,-4.4046,-4.4036,-4.3999,-4.406,-4.4065,-4.4212,-4.426,-4.4346,-4.4681,-4.4714,0,0,0,-4.4085,-4.414,-4.4164,-4.4198,-4.4194,-4.4196,-4.4159,-4.4156,-4.4206,-4.4039,-4.4265,-4.4292,-4.4341,-4.4381,-4.4409,-4.4449,-4.4107,-4.4106,-4.4106,-4.4404,-4.435,-4.4471,-4.4421,-4.4455,-4.4417,-4.444,-4.4429,-4.4363,-4.4418,-4.4436,-4.4646,-4.4695,-4.4716,-4.4759,-4.4477,-4.4478,-4.4478,-4.4479,-4.4666,-4.4736,-4.4647,-4.4733,-4.4676,-4.4747,-4.4715,-4.4667,-4.4726,-4.4627,-4.4667,-4.4566,-4.4754,-4.4788,-4.4488,-4.4486,-4.4485,-4.4484,-4.4484,-4.4871,-4.4895,-4.4889,-4.4934,-4.4975,-4.4918,-4.498,-4.4924,-4.4873,-4.4912,-4.4927,-4.4925,-4.4918,-4.4923,-4.4924,-4.4925,-4.4925,-4.4926,-4.4926,-4.5086,-4.5075,-4.5133,-4.514,-4.5156,-4.5169,-4.5132,-4.5146,-4.5147,-4.5103,-4.5102,-4.5034,-4.4781,-4.472,-4.4937,-4.4935,-4.4934,-4.4933,-4.4932,-4.5376,-4.5301,-4.5392,-4.5408,-4.5412,-4.5458,-4.5386,-4.5419,-4.5422,-4.5455,-4.5377,-4.5199,-4.5161,-4.5138,-4.5088,-4.5387,-4.5387,-4.5387,-4.5387,-4.555,-4.5525,-4.5605,-4.5635,-4.5657,-4.5602,-4.5707,-4.568,-4.5641,-4.564,-4.5588,-4.5515,-4.5495,-4.5469,-4.544,-4.5392,-4.5761,-4.5762,-4.5762,-4.5726,-4.5701,-4.5801,-4.5761,-4.5761,-4.5762,-4.586,-4.5898,-4.5837,-4.5776,-4.5639,-4.5623,-4.5505,-4.5469,-4.5406,-4.5361,-4.5272,0,0]},{"header":{"parameterUnit":"m.s-1","parameterCategory":1,"la1":30.2992,"la2":30.254,"lo1":-89.0895,"lo2":-89.0443,"dy":0.0025,"dx":0.0025,"nx":19,"ny":19,"refTime":"2026-04-29T21:00:00:Z","depth":0,"parameterNumber":3,"parameterNumberName":"V-component_of_WINDS"},"data":[0,0,0,-1.2063,-1.2064,-1.2094,-1.2094,-1.2139,-1.214,0,0,0,0,0,0,0,0,0,0,0,-1.2058,-1.2059,-1.2063,-1.2064,-1.2094,-1.2094,-1.2139,-1.214,0,0,0,0,0,0,0,0,0,0,0,-1.2058,-1.2059,-1.2059,-1.2064,-1.2094,-1.2094,-1.2139,-1.2114,0,0,0,0,0,0,0,0,0,0,-1.2084,-1.2083,-1.2059,-1.2059,-1.2065,-1.2094,-1.2094,-1.2113,-1.2116,-1.2129,0,-1.2141,0,-1.2141,-1.2143,-1.2143,0,0,0,-1.2062,-1.2081,-1.2085,-1.2059,-1.2065,-1.2094,-1.208,-1.2114,-1.2118,-1.2133,-1.2141,-1.2143,-1.2142,-1.2144,-1.2144,-1.2226,-1.2227,0,0,-1.206,-1.2066,-1.2083,-1.2088,-1.2083,-1.2079,-1.2081,-1.2116,-1.2127,-1.2142,-1.2144,-1.2143,-1.2144,-1.2144,-1.2226,-1.2226,0,0,0,-1.2057,-1.2065,-1.2068,-1.2086,-1.2091,-1.208,-1.2082,-1.2125,-1.2125,-1.2144,-1.2143,-1.2144,-1.2145,-1.2225,-1.2226,-1.2257,0,0,0,-1.2056,-1.2063,-1.2068,-1.2072,-1.209,-1.2108,-1.209,-1.2123,-1.2127,-1.2143,-1.2144,-1.2145,-1.2225,-1.2226,-1.2255,-1.2271,0,0,0,-1.2055,-1.2063,-1.2069,-1.2072,-1.2085,-1.2107,-1.211,-1.2124,-1.2126,-1.2143,-1.2145,-1.2224,-1.2226,-1.2253,-1.2268,-1.2295,0,0,0,-1.2057,-1.2096,-1.2069,-1.2113,-1.2085,-1.2126,-1.2109,-1.214,-1.2158,-1.2144,-1.2225,-1.2226,-1.2253,-1.2266,-1.2293,-1.2319,-1.233,0,0,-1.211,-1.2103,-1.2128,-1.2105,-1.2152,-1.2121,-1.2173,-1.2185,-1.2181,-1.2212,-1.2214,-1.2256,-1.2268,-1.2295,-1.239,-1.2399,0,0,0,-1.2147,-1.2166,-1.2177,-1.2194,-1.2203,-1.2213,-1.2215,-1.222,-1.2245,-1.2198,-1.2272,-1.2279,-1.2295,-1.2307,-1.2315,-1.2328,-1.2232,-1.2232,-1.2231,-1.2232,-1.2225,-1.2266,-1.2263,-1.228,-1.2282,-1.2296,-1.2302,-1.229,-1.2307,-1.2317,-1.2376,-1.239,-1.2396,-1.241,-1.2329,-1.2329,-1.233,-1.233,-1.2311,-1.2336,-1.2318,-1.2352,-1.2344,-1.2373,-1.2377,-1.2367,-1.2393,-1.2368,-1.2381,-1.2355,-1.2406,-1.2418,-1.2332,-1.2332,-1.2331,-1.2331,-1.2331,-1.2366,-1.2377,-1.2381,-1.2405,-1.2425,-1.242,-1.2446,-1.2438,-1.2431,-1.2444,-1.2453,-1.2452,-1.2451,-1.2448,-1.2449,-1.2449,-1.2449,-1.2449,-1.2449,-1.2422,-1.2426,-1.2448,-1.2461,-1.2471,-1.2484,-1.2486,-1.2496,-1.2506,-1.2498,-1.2498,-1.2485,-1.2412,-1.2394,-1.2452,-1.2452,-1.2451,-1.2451,-1.2451,-1.2506,-1.2485,-1.252,-1.253,-1.2545,-1.2566,-1.2555,-1.2576,-1.2583,-1.2596,-1.258,-1.2527,-1.2519,-1.2513,-1.2499,-1.2581,-1.2581,-1.2581,-1.2581,-1.2553,-1.2548,-1.2582,-1.2599,-1.2614,-1.2608,-1.2648,-1.2651,-1.265,-1.2654,-1.2641,-1.2621,-1.2615,-1.2611,-1.2602,-1.2589,-1.2692,-1.2692,-1.2692,-1.2604,-1.26,-1.2636,-1.2634,-1.2645,-1.2655,-1.2693,-1.2713,-1.2709,-1.2696,-1.2657,-1.2653,-1.262,-1.2609,-1.2597,-1.2584,-1.2559,0,0]}]]